Weather History for KNID - April, 2013

Change the Weather History Date:

Tuesday, April 23, 2013

  Actual Average Record
Temperature  
Mean Temperature 70 °F -  
Max Temperature 80 °F 75 °F 96 °F (2012)
Min Temperature 62 °F 52 °F 39 °F (2003)
Cooling Degree Days 6    
Growing Degree Days 20 (Base 50)    
Moisture  
Dew Point 15 °F    
Average Humidity 12    
Maximum Humidity 26    
Minimum Humidity 7    
Precipitation  
Precipitation 0.00 in - - ()
Sea Level Pressure  
Sea Level Pressure 29.87 in    
Wind  
Wind Speed 12 mph (ENE)    
Max Wind Speed 21 mph    
Max Gust Speed 28 mph    
Visibility 10 miles    
Events      
Averages and records for this station are not official NWS values.
T = Trace of Precipitation, MM = Missing Value Source: NWS Daily Summary

Daily Weather History Graph

Daily Weather History Graph

Search for Another Location

Airport or City:

Trip Planner

Search our weather history database for the weather conditions in past years. The results will help you decide how hot, cold, wet, or windy it might be!

Date:

Astronomy

Apr. 23, 2013 Rise Set
Actual Time 6:07 AM PDT 7:31 PM PDT
Civil Twilight 5:40 AM PDT 7:57 PM PDT
Nautical Twilight 5:08 AM PDT 8:30 PM PDT
Astronomical Twilight 4:35 AM PDT 9:03 PM PDT
Moon 5:34 PM PDT (4/23) 4:33 AM PDT (4/23)
Length of Visible Light 14h 17m
Length of Day
13h 23m
Waxing Gibbous, 94% of the Moon is Illuminated
Apr 23
Waxing Gibbous
Apr 25
Full
May 2
Last Quarter
May 9
New
May 17
First Quarter

Hourly Weather History & Observations

Time (PDT) Temp. Dew Point Humidity Pressure Visibility Wind Dir Wind Speed Gust Speed Precip Events Conditions
12:56 AM 64.0 °F 28.0 °F 26% 29.74 in 10.0 mi NW 8.1 mph - N/A   Clear
1:56 AM 68.0 °F 28.0 °F 22% 29.75 in 10.0 mi WNW 9.2 mph - N/A   Clear
2:56 AM 70.0 °F 24.1 °F 18% 29.78 in 10.0 mi NW 18.4 mph 21.9 mph N/A   Clear
3:56 AM 66.9 °F 21.0 °F 17% 29.81 in 9.0 mi NW 18.4 mph 21.9 mph N/A   Clear
4:56 AM 64.9 °F 19.0 °F 17% 29.83 in 10.0 mi NW 20.7 mph 27.6 mph N/A   Clear
5:56 AM 64.0 °F 17.1 °F 16% 29.86 in 10.0 mi NW 19.6 mph 27.6 mph N/A   Clear
6:56 AM 64.0 °F 17.1 °F 16% 29.91 in 10.0 mi NW 17.3 mph 23.0 mph N/A   Clear
7:56 AM 66.9 °F 16.0 °F 14% 29.94 in 10.0 mi NW 17.3 mph - N/A   Clear
8:56 AM 70.0 °F 16.0 °F 13% 29.96 in 10.0 mi NW 17.3 mph 24.2 mph N/A   Clear
9:56 AM 73.0 °F 18.0 °F 12% 29.97 in 10.0 mi NNE 9.2 mph 16.1 mph N/A   Clear
10:56 AM 73.9 °F 18.0 °F 12% 29.97 in 10.0 mi Variable 6.9 mph - N/A   Clear
11:56 AM 77.0 °F 14.0 °F 9% 29.96 in 10.0 mi East 12.7 mph 19.6 mph N/A   Clear
12:56 PM 78.1 °F 12.9 °F 8% 29.96 in 10.0 mi ESE 17.3 mph 23.0 mph N/A   Clear
1:56 PM 78.1 °F 12.9 °F 8% 29.94 in 10.0 mi East 16.1 mph 21.9 mph N/A   Clear
2:56 PM 78.1 °F 12.0 °F 8% 29.91 in 10.0 mi East 10.4 mph - N/A   Clear
3:56 PM 79.0 °F 10.9 °F 8% 29.88 in 10.0 mi Variable 4.6 mph - N/A   Clear
4:56 PM 79.0 °F 10.0 °F 7% 29.86 in 10.0 mi East 9.2 mph - N/A   Clear
5:56 PM 79.0 °F 10.0 °F 7% 29.84 in 10.0 mi SE 6.9 mph - N/A   Clear
6:56 PM 77.0 °F 8.1 °F 7% 29.82 in 10.0 mi ESE 6.9 mph - N/A   Clear
7:56 PM 72.0 °F 7.0 °F 8% 29.82 in 10.0 mi ESE 8.1 mph - N/A   Clear
8:56 PM 71.1 °F 7.0 °F 8% 29.84 in 10.0 mi SE 8.1 mph - N/A   Clear
9:56 PM 64.0 °F 8.1 °F 11% 29.86 in 10.0 mi SSE 4.6 mph - N/A   Clear
10:56 PM 62.1 °F 6.1 °F 11% 29.85 in 10.0 mi SSE 6.9 mph - N/A   Clear
11:56 PM 66.0 °F 9.0 °F 11% 29.84 in 10.0 mi South 9.2 mph - N/A   Clear